sat.trackr.live / text

‹ back to catalog

ONEWEB-0151

NORAD 48066 · 2021-025AA

PAYLOAD ACTIVE UNKNOWN

§ Identity

Operator
Country
UK
Launch date
2021-03-25
Launch site
VOSTO
Launch vehicle
Mass (kg)
RCS (m²)

Purposes: comms

External: N2YO · Heavens-Above · Gunter

§ Orbital elements

Epoch: 2026-09-20T01:34:54.365664Z

Period
109.63 min
Inclination
87.8919°
Eccentricity
0.0001812
Mean motion
13.13470543 rev/d
Perigee alt
1,208.4 km
Apogee alt
1,211.1 km
Semi-major
7,587.9 km
B*
-6.3835e-4
RAAN
301.3441°
Arg perigee
91.8180°
Mean anomaly
268.3157°
Rev number
26,604

§ Raw data

ONEWEB-01511 48066U 21025AA  26263.06590701 -.00000220  00000+0 -63835-3 0  99942 48066  87.8919 301.3441 0001812  91.8180 268.3157 13.13470543266044

JSON: /api/v1/satellites/48066 · /tle

For live sub-satellite position, see the globe view (requires WebGL).

§ Visibility from observer

Set your observer location to see the next 7 days of passes ≥ 10°. The values pass through the URL so the page stays shareable.

No JS? Fill the form by hand. The geolocation button needs JavaScript.